Regional Weather Roundup
Issued by NWS

Home | Current Version | Previous Version | Graphics & Text | Print | Product List | Glossary On
Versions: 1 2 3 4 5 6 7 8 9 10 11 12 13 14 15 16 17 18 19 20 21 22 23 24 25 26 27 28 29 30 31 32 33 34 35 36 37 38 39 40 41 42 43 44 45 46 47 48 49 50
000
ASUS43 KMPX 221401
RWRMN
WEATHER ROUNDUP FOR MINNESOTA
NATIONAL WEATHER SERVICE TWIN CITIES/CHANHASSEN MN
900 AM CDT TUE JUL 22 2014


NOTE: "FAIR" INDICATES FEW OR NO CLOUDS BELOW 12,000 FEET WITH NO
SIGNIFICANT WEATHER AND/OR OBSTRUCTIONS TO VISIBILITY. N/A MEANS
CURRENT SKY AND/OR WEATHER CONDITIONS ARE NOT AVAILABLE.

MNZ060>063-068>070-221500-
   Twin Cities Metro

CITY           SKY/WX    TMP DP  RH WIND       PRES   REMARKS
TWIN CITIES    MOSUNNY   76  64  66 NW18      29.94R
ST PAUL        SUNNY     75  65  70 NW14      29.94R
CRYSTAL        SUNNY     77  64  64 NW13      29.94R
BLAINE         MOSUNNY   75  66  73 NW15G22   29.94R
LAKEVILLE      MOSUNNY   72  64  78 NW12      29.92F
EDEN PRAIRIE   MOSUNNY   75  65  70 NW12      29.94S
SOUTH ST PAUL  SUNNY     76  64  64 NW15      29.93F
LAKE ELMO      FAIR      73  64  73 NW14G22   29.95S
$$
MNZ001>005-007-008-013>017-022>024-027-028-221500-
   Northwest Minnesota

CITY           SKY/WX    TMP DP  RH WIND       PRES   REMARKS
BEMIDJI        MOSUNNY   65  60  84 NW17      30.01R
HALLOCK        SUNNY     64  57  77 N12       30.06R
ROSEAU         SUNNY     64  57  77 N14       30.02R
THIEF RVR FALL SUNNY     64  57  77 NW12      30.05R
FOSSTON        SUNNY     64  59  82 NW8       30.05R
DETROIT LAKES  CLOUDY    64  61  88 NW14G20   30.08R
MOORHEAD       SUNNY     68  64  88 N14       30.07R
PARK RAPIDS    PTSUNNY   68  61  78 NW12      30.02R
$$
MNZ006-009>011-018-025>026-221500-
   North Central Minnesota

CITY           SKY/WX    TMP DP  RH WIND       PRES   REMARKS
BAUDETTE       SUNNY     67  59  75 NW15      29.98R
FLAG ISLAND    SUNNY     64  55  72 N17       29.98R
INTL FALLS     CLOUDY    64  61  90 NW12      29.92R
WASKISH        MOSUNNY   64  61  88 NW8       29.98R
BIG FORK       CLOUDY    64  61  88 NW6       29.94R
LONGVILLE      CLOUDY    64  61  88 W9G17     29.98R
GRAND RAPIDS   CLOUDY    64  61  88 NW14G22   29.94R
CRANE LAKE     CLOUDY    64  63  94 NW3       29.88R
ORR            CLOUDY    64  61  88 NW13G21   29.87R
COOK           CLOUDY    66  63  88 W10G17    29.90R
$$
MNZ012-019>021-037-221500-
   Northeast Minnesota

CITY           SKY/WX    TMP DP  RH WIND       PRES   REMARKS
DULUTH         CLOUDY    70  62  76 NW16G31   29.87R
ELY            CLOUDY    66  63  88 NW12G20   29.83R
HIBBING        CLOUDY    69  63  81 NW15G28   29.90R
DULUTH HARBOR  CLOUDY    73  66  78 W25G33    29.86R
TWO HARBORS    CLOUDY    70  63  78 W10G20    29.81R
SILVER BAY     PTSUNNY   70  66  88 W10G20    29.77R
GRAND MARAIS     N/A     54  53  97 VRB3      29.72R
G MARAIS ARPRT CLOUDY    64  61  88 NW12G23   29.76R
$$
MNZ029>031-032-039>041-046>048-054>057-064-221500-
   West Central Minnesota

CITY           SKY/WX    TMP DP  RH WIND       PRES   REMARKS
FERGUS FALLS   MOSUNNY   68  61  77 N9G21     30.05R
WHEATON        PTSUNNY   66  61  82 NW13      30.09R
MORRIS         PTSUNNY   66  64  94 NW15G23   30.04R
ALEXANDRIA     CLOUDY    67  62  84 NW16      30.05R
ELBOW LAKE     CLOUDY    65  62  89 N13G22    30.06R
WADENA         PTSUNNY   66  61  82 NW10G21   30.02R
GLENWOOD       CLOUDY    66  64  94 NW14      30.04R
APPLETON       PTSUNNY   72  63  73 N16G24    30.03S
BENSON         CLOUDY    70  64  83 N15G21    30.03R
MADISON        PTSUNNY   73  66  78 NW16G22   30.05R
WILLMAR        FAIR      70  63  78 NW17G23   30.02S
$$
MNZ033>034-036-042>043-049>051-058-059-221500-
   Central Minnesota

CITY           SKY/WX    TMP DP  RH WIND       PRES   REMARKS
ST CLOUD       MOSUNNY   72  62  71 NW16G25   29.98R
SAUK CENTRE    CLOUDY    68  63  84 NW12      30.02R
PAYNESVILLE    RAIN      68  62  80 W15       30.01R
AITKIN         CLOUDY    70  63  78 NW6G17    29.96R
PINE RIVER     PTSUNNY   66  61  82 NW10G17   30.03R
BRAINERD       CLOUDY    67  62  84 NW13G22   29.99R
STAPLES        CLOUDY    66  63  88 NW9G18    30.00R
LONG PRAIRIE   CLOUDY    66  63  88 W7        30.04R
LITTLE FALLS   PTSUNNY   70  61  73 NW10G16   30.00R
LITCHFIELD     PTSUNNY   72  66  83 NW16      29.99S
BUFFALO        SUNNY     73  63  69 NW13G18   29.98R
MAPLE LAKE     SUNNY     73  65  76 NW10G21   29.98R
$$
MNZ037-044-045-052-053-221500-
   East Central Minnesota

CITY           SKY/WX    TMP DP  RH WIND       PRES   REMARKS
PRINCETON      MOSUNNY   73  64  73 NW16G25   29.98R
MORA           PTSUNNY   70  63  78 NW13G18   29.97R
CAMBRIDGE      MOSUNNY   75  63  64 NW12G17   29.94R
RUSH CITY      MOSUNNY   73  65  75 W6G18     29.94R
MOOSE LAKE     CLOUDY    70  63  78 NW9G18    29.91R
HINCKLEY       PTSUNNY   72  64  78 NW12G21   29.93R
CLOQUET        CLOUDY    68  63  83 W15G24    29.90R
MCGREGOR       CLOUDY    68  63  83 NW14G20   29.96R
$$
MNZ071>073-080-081-089-090-097-098-221500-
   Southwest Minnesota

CITY           SKY/WX    TMP DP  RH WIND       PRES   REMARKS
MONTEVIDEO     CLOUDY    70  64  83 N13G21    30.02S
GRANITE FALLS  CLOUDY    69  63  81 NW13G22   30.02R
CANBY          MOSUNNY   71  64  77 N16G22    30.04R
MARSHALL       PTSUNNY   70  63  78 N17G24    30.00S
REDWOOD FALLS  CLOUDY    71  64  78 NW10G18   30.00R
OLIVIA         CLOUDY    70  63  78 NW15G24   29.99R
PIPESTONE      MOSUNNY   72  63  73 NE16      30.03R
WINDOM         PTSUNNY   70  64  83 N17       30.01S
WORTHINGTON    PTSUNNY   70  64  83 N16G22    30.03R
TRACY          CLOUDY    70  65  83 N9        30.02R
SLAYTON        PTSUNNY   69  64  83 N18G24    30.04R
$$
MNZ065>067-074>077-082>085-091>093-221500-
   South Central Minnesota

CITY           SKY/WX    TMP DP  RH WIND       PRES   REMARKS
MANKATO        PTSUNNY   72  63  73 NW8       29.96F
NEW ULM        CLOUDY    70  66  88 W14       30.01R
ST JAMES       PTSUNNY   72  64  78 NW9       30.00F
FAIRMONT       MOSUNNY   73  63  68 N8        29.97F
GLENCOE        PTSUNNY   74  63  69 N16G23    29.91F
FARIBAULT      PTSUNNY   79  61  53 W9        29.96F
OWATONNA       PTSUNNY   75  64  69 NW13      29.97S
WASECA         PTSUNNY   72  61  68 NW9       29.99S
ALBERT LEA     MOSUNNY   75  64  69 NW9       29.98R
$$
MNZ078>079-086>088-094>096-221500-
   Southeast Minnesota

CITY           SKY/WX    TMP DP  RH WIND       PRES   REMARKS
ROCHESTER      SUNNY     81  71  71 NW13      29.96R
RED WING       SUNNY     81  64  57 NW13      29.92R
STANTON        MOSUNNY   76  64  67 NW9       29.93F
DODGE CENTER   MOSUNNY   79  66  65 NW14G20   29.96F
WINONA         MOSUNNY   81  72  74 W7        29.91R
AUSTIN         SUNNY     81  70  69 NW13      29.96S
PRESTON        PTSUNNY   78  77  97 NW13      29.96S
$$
ABBREVIATIONS USED IN REMARKS
   TC - TEMPERATURES IN CELSIUS
  WCI - WIND CHILL INDEX
   HX - HEAT INDEX
  VSB - VISIBILITY
$$



USA.gov is the U.S. government's official web portal to all federal, state and local government web resources and services.